Meteo orario Gogolevka

Oggi, 15 Aprile, Giovedi

Tempo Temperatura Precipitazioni Vento Pressione Umidità
00:00 +4°C° 0 mm 4 m/s 743 mm Hg 96%
01:00 +4°C° 0 mm 4 m/s 743 mm Hg 96%
02:00 +4°C° 0 mm 4 m/s 743 mm Hg 95%
03:00 +4°C° 0.2 mm 4 m/s 743 mm Hg 95%
04:00 +4°C° 0.2 mm 4 m/s 742 mm Hg 95%
05:00 +4°C° 0.2 mm 4 m/s 742 mm Hg 95%
06:00 +4°C° 0.3 mm 4 m/s 742 mm Hg 95%
07:00 +4°C° 0.3 mm 4 m/s 742 mm Hg 95%
08:00 +4°C° 0 mm 4 m/s 742 mm Hg 95%
09:00 +4°C° 0.4 mm 4 m/s 742 mm Hg 95%
10:00 +5°C° 0.4 mm 5 m/s 742 mm Hg 94%
11:00 +5°C° 0.4 mm 5 m/s 742 mm Hg 94%
12:00 +5°C° 0.5 mm 5 m/s 742 mm Hg 94%
13:00 +5°C° 0.5 mm 5 m/s 742 mm Hg 94%
14:00 +5°C° 0.5 mm 5 m/s 742 mm Hg 93%
15:00 +5°C° 0.1 mm 5 m/s 741 mm Hg 93%
16:00 +5°C° 0.1 mm 5 m/s 741 mm Hg 93%
17:00 +4°C° 0.1 mm 6 m/s 741 mm Hg 93%
18:00 +5°C° 0 mm 5 m/s 741 mm Hg 94%
19:00 +5°C° 0 mm 5 m/s 741 mm Hg 94%
20:00 +5°C° 0 mm 5 m/s 741 mm Hg 94%
21:00 +6°C° 0.1 mm 5 m/s 740 mm Hg 94%
22:00 +5°C° 0.1 mm 6 m/s 740 mm Hg 94%
23:00 +7°C° 0.1 mm 6 m/s 740 mm Hg 94%

Domani, 16 Aprile, Venerdi

Tempo Temperatura Precipitazioni Vento Pressione Umidità
00:00 +7°C° 0.1 mm 6 m/s 740 mm Hg 94%
01:00 +7°C° 0.1 mm 5 m/s 740 mm Hg 94%
02:00 +7°C° 0.1 mm 5 m/s 740 mm Hg 94%
03:00 +7°C° 0.4 mm 5 m/s 740 mm Hg 95%
04:00 +7°C° 0.4 mm 5 m/s 740 mm Hg 95%
05:00 +7°C° 0.4 mm 5 m/s 740 mm Hg 95%
06:00 +7°C° 0 mm 5 m/s 740 mm Hg 92%
07:00 +8°C° 0 mm 5 m/s 740 mm Hg 89%
08:00 +9°C° 0 mm 5 m/s 741 mm Hg 86%
09:00 +10°C° 0.2 mm 6 m/s 741 mm Hg 82%
10:00 +10°C° 0.2 mm 6 m/s 741 mm Hg 78%
11:00 +11°C° 0.2 mm 6 m/s 741 mm Hg 74%
12:00 +13°C° 0.5 mm 6 m/s 741 mm Hg 72%
13:00 +13°C° 0.5 mm 6 m/s 741 mm Hg 69%
14:00 +12°C° 0.5 mm 7 m/s 741 mm Hg 67%
15:00 +13°C° 0.4 mm 6 m/s 742 mm Hg 68%
16:00 +11°C° 0.4 mm 6 m/s 742 mm Hg 69%
17:00 +12°C° 0.4 mm 5 m/s 742 mm Hg 70%
18:00 +10°C° 0.3 mm 5 m/s 742 mm Hg 76%
19:00 +9°C° 0.3 mm 5 m/s 743 mm Hg 82%
20:00 +8°C° 0.3 mm 5 m/s 743 mm Hg 88%
21:00 +8°C° 0.2 mm 5 m/s 743 mm Hg 89%
22:00 +8°C° 0.2 mm 5 m/s 743 mm Hg 90%
23:00 +8°C° 0.2 mm 5 m/s 743 mm Hg 91%

Dopodomani, 17 Aprile, Sabato

Tempo Temperatura Precipitazioni Vento Pressione Umidità
00:00 +7°C° 0 mm 4 m/s 743 mm Hg 92%
01:00 +7°C° 0 mm 4 m/s 743 mm Hg 94%
02:00 +7°C° 0 mm 3 m/s 743 mm Hg 95%
03:00 +7°C° 0 mm 3 m/s 744 mm Hg 95%
04:00 +5°C° 0 mm 3 m/s 744 mm Hg 96%
05:00 +6°C° 0 mm 2 m/s 744 mm Hg 96%
06:00 +7°C° 0.1 mm 2 m/s 745 mm Hg 92%
07:00 +8°C° 0.1 mm 3 m/s 745 mm Hg 88%
08:00 +9°C° 0.1 mm 3 m/s 745 mm Hg 83%
09:00 +11°C° 0 mm 3 m/s 746 mm Hg 75%
10:00 +12°C° 0 mm 4 m/s 746 mm Hg 67%
11:00 +13°C° 0 mm 4 m/s 746 mm Hg 59%
12:00 +13°C° 0.1 mm 4 m/s 746 mm Hg 60%
13:00 +13°C° 0.1 mm 5 m/s 746 mm Hg 62%
14:00 +13°C° 0.1 mm 5 m/s 746 mm Hg 64%
15:00 +12°C° 0.2 mm 5 m/s 746 mm Hg 70%
16:00 +12°C° 0.2 mm 5 m/s 746 mm Hg 76%
17:00 +11°C° 0.2 mm 4 m/s 746 mm Hg 82%
18:00 +10°C° 0.4 mm 4 m/s 746 mm Hg 83%
19:00 +10°C° 0.4 mm 4 m/s 746 mm Hg 84%
20:00 +10°C° 0.4 mm 4 m/s 746 mm Hg 86%
21:00 +10°C° 0.2 mm 4 m/s 746 mm Hg 85%
22:00 +10°C° 0.2 mm 4 m/s 746 mm Hg 84%
23:00 +8°C° 0.2 mm 4 m/s 746 mm Hg 83%

18 Aprile, Domenica

Tempo Temperatura Precipitazioni Vento Pressione Umidità
00:00 +8°C° 0 mm 4 m/s 746 mm Hg 85%
01:00 +7°C° 0 mm 4 m/s 746 mm Hg 86%
02:00 +6°C° 0 mm 4 m/s 746 mm Hg 87%
03:00 +7°C° 0 mm 3 m/s 746 mm Hg 88%
04:00 +5°C° 0 mm 3 m/s 746 mm Hg 89%
05:00 +5°C° 0 mm 3 m/s 746 mm Hg 90%
06:00 +5°C° 0 mm 3 m/s 746 mm Hg 85%
07:00 +6°C° 0 mm 4 m/s 746 mm Hg 79%
08:00 +7°C° 0 mm 4 m/s 746 mm Hg 74%
09:00 +8°C° 0 mm 4 m/s 746 mm Hg 70%
10:00 +11°C° 0 mm 4 m/s 747 mm Hg 66%
11:00 +12°C° 0 mm 4 m/s 747 mm Hg 61%
12:00 +13°C° 0 mm 4 m/s 747 mm Hg 59%
13:00 +13°C° 0 mm 4 m/s 747 mm Hg 57%
14:00 +14°C° 0 mm 4 m/s 747 mm Hg 55%
15:00 +13°C° 0 mm 4 m/s 747 mm Hg 57%
16:00 +13°C° 0 mm 4 m/s 747 mm Hg 59%
17:00 +12°C° 0 mm 3 m/s 747 mm Hg 60%
18:00 +12°C° 0 mm 3 m/s 747 mm Hg 63%
19:00 +11°C° 0 mm 3 m/s 747 mm Hg 66%
20:00 +10°C° 0 mm 3 m/s 747 mm Hg 69%
21:00 +10°C° 0 mm 3 m/s 748 mm Hg 72%
22:00 +10°C° 0 mm 2 m/s 748 mm Hg 75%
23:00 +9°C° 0 mm 2 m/s 748 mm Hg 78%

19 Aprile, Lunedi

Tempo Temperatura Precipitazioni Vento Pressione Umidità
00:00 +9°C° 0 mm 2 m/s 748 mm Hg 78%
01:00 +9°C° 0 mm 2 m/s 748 mm Hg 78%
02:00 +9°C° 0 mm 2 m/s 748 mm Hg 78%
03:00 +8°C° 0 mm 2 m/s 748 mm Hg 77%
04:00 +8°C° 0 mm 2 m/s 748 mm Hg 76%
05:00 +8°C° 0 mm 2 m/s 748 mm Hg 75%
06:00 +9°C° 0 mm 2 m/s 749 mm Hg 73%
07:00 +9°C° 0 mm 2 m/s 749 mm Hg 71%
08:00 +9°C° 0 mm 2 m/s 749 mm Hg 69%
09:00 +11°C° 0 mm 3 m/s 749 mm Hg 61%
10:00 +12°C° 0 mm 4 m/s 749 mm Hg 54%
11:00 +13°C° 0 mm 5 m/s 749 mm Hg 46%
12:00 +13°C° 0 mm 5 m/s 748 mm Hg 45%
13:00 +13°C° 0 mm 5 m/s 748 mm Hg 44%
14:00 +14°C° 0 mm 5 m/s 748 mm Hg 43%
15:00 +13°C° 0 mm 4 m/s 748 mm Hg 45%
16:00 +13°C° 0 mm 4 m/s 748 mm Hg 47%
17:00 +13°C° 0 mm 4 m/s 748 mm Hg 49%
18:00 +11°C° 0 mm 4 m/s 748 mm Hg 56%
19:00 +10°C° 0 mm 4 m/s 748 mm Hg 62%
20:00 +7°C° 0 mm 4 m/s 748 mm Hg 69%
21:00 +7°C° 0 mm 4 m/s 748 mm Hg 72%
22:00 +6°C° 0 mm 4 m/s 748 mm Hg 74%
23:00 +6°C° 0 mm 4 m/s 748 mm Hg 77%

20 Aprile, Martedi

Tempo Temperatura Precipitazioni Vento Pressione Umidità
00:00 +5°C° 0 mm 4 m/s 748 mm Hg 79%
01:00 +5°C° 0 mm 4 m/s 748 mm Hg 80%
02:00 +4°C° 0 mm 3 m/s 748 mm Hg 82%
03:00 +4°C° 0 mm 4 m/s 748 mm Hg 83%
04:00 +3°C° 0 mm 4 m/s 748 mm Hg 85%
05:00 +3°C° 0 mm 4 m/s 747 mm Hg 86%
06:00 +4°C° 0 mm 4 m/s 747 mm Hg 78%
07:00 +5°C° 0 mm 5 m/s 747 mm Hg 70%
08:00 +7°C° 0 mm 5 m/s 747 mm Hg 63%
09:00 +7°C° 0 mm 6 m/s 747 mm Hg 58%
10:00 +8°C° 0 mm 6 m/s 747 mm Hg 53%
11:00 +9°C° 0 mm 7 m/s 747 mm Hg 49%
12:00 +9°C° 0 mm 7 m/s 746 mm Hg 47%
13:00 +10°C° 0 mm 7 m/s 746 mm Hg 44%
14:00 +10°C° 0 mm 7 m/s 746 mm Hg 42%
15:00 +10°C° 0 mm 6 m/s 746 mm Hg 45%
16:00 +10°C° 0 mm 6 m/s 745 mm Hg 48%
17:00 +10°C° 0 mm 5 m/s 745 mm Hg 52%
18:00 +8°C° 0 mm 5 m/s 745 mm Hg 55%
19:00 +7°C° 0 mm 5 m/s 745 mm Hg 59%
20:00 +6°C° 0 mm 5 m/s 745 mm Hg 63%
21:00 +5°C° 0 mm 5 m/s 745 mm Hg 64%
22:00 +5°C° 0 mm 4 m/s 745 mm Hg 66%
23:00 +4°C° 0 mm 4 m/s 745 mm Hg 67%
Mostrare altro

Abbiamo bisogno del tuo consenso

Meteoprog e i nostri fornitori di servizi possono memorizzare e accedere a dati personali come cookie, identificatori di dispositivi o altre tecnologie simili sul tuo dispositivo e possono elaborare tali dati per personalizzare i contenuti e gli annunci, nonché fornire funzionalità dei social media e analizzarne il traffico.

  • Archiviare e/o accedere alle informazioni sul tuo dispositivo

    Cookie, identificatori di dispositivi o altre informazioni possono essere memorizzati o resi accessibili sul tuo dispositivo per le finalità sopra indicate.

  • Annunci e contenuti personalizzati, misurazione di annunci e contenuti, approfondimenti sul pubblico e sviluppo di prodotti

    Gli annunci e i contenuti possono essere personalizzati in base a un profilo. È possibile aggiungere più dati per personalizzare meglio annunci e contenuti. È possibile misurare il rendimento degli annunci e dei contenuti. È possibile ricavare informazioni sul pubblico che ha visto gli annunci e i contenuti. Tali dati possono essere utilizzati per sviluppare o migliorare l'esperienza, i sistemi e il software dell'utente.

Cliccando su “Accetto”, acconsenti all'uso di cookie, identificatori di dispositivo, web beacon o altre tecnologie simili. Puoi modificare le impostazioni nel browser del tuo dispositivo.

Per determinati scopi, è possibile fare affidamento su interessi legali, piuttosto che sul consenso. Puoi approfondire questo argomento consultando la nostra Informativa sulla privacy e sui cookie.